User: anonymous   Login
Location: Cran-Gévrier
(45.9039°N, 6.1012°E)
Time: 21:08:01
(UTC+00:00)
Language:

Okean 1-7 Rocket - Orbit

View from above orbital plane
View from above orbital plane
View from above satellite
View from above satellite

Ground track
Ground track

The orbit data is extracted from the following two-line orbital elements,

1 23318U 94066B   24257.42917753  .00002009  00000-0  26131-3 0  9997
2 23318  82.5390 234.5375 0022335 209.6906 150.3041 14.80043567613633
Epoch (UTC): 13 September 2024 10:18:00
Eccentricity: 0.0022335
inclination: 82.5390°
perigee height: 613 km
apogee height: 645 km
right ascension of ascending node: 234.5375°
argument of perigee: 209.6906°
revolutions per day: 14.80043567
mean anomaly at epoch: 150.3041°
orbit number at epoch: 61363

The dashed part of the orbit path shows where the satellite is in the earth's shadow,  

DLR